Back to catalog

HIBARI

AliveScienceSSO
NORAD 49400·PAYLOAD·🇯🇵 Japan

Launched Nov 9, 2021 from Uchinoura Space Center

Loading…

Next Passes (next 24 hours)

TLE

FreshSource: Space-Track

Epoch: Sep 13, 2026, 20:51 UTC

1 49400U 21102F   26256.86897044  .00009313  00000-0  29104-3 0  9995
2 49400  97.3150 301.8235 0009598 237.5023 122.5293 15.33339075267771

Track HIBARI in real time with AllMySat

Download on the App Store